[[{"header":{"parameterUnit":"m.s-1","parameterCategory":1,"la1":30.2991,"la2":30.254,"lo1":-89.0895,"lo2":-89.0444,"dy":0.0017,"dx":0.0017,"nx":28,"ny":28,"refTime":"2025-04-13T03:00:00:Z","depth":0,"parameterNumber":2,"parameterNumberName":"U-component_of_WINDS"},"data":[0,0,0,0,0,0,0,0,0,0,0,0,0,0,0,0,0,0,0,0,0,0,0,0,0,0,0,0,0,0,0,0,0,0,0,0,0,0,0,0,0,0,0,0,0,0,0,0,0,0,0,0,0,0,0,0,0,0,3.6394,3.6395,0,3.6495,3.6496,3.6498,3.6452,3.6449,3.6447,3.6445,3.6543,3.6548,3.6553,0,0,0,0,0,0,0,0,0,0,0,0,0,3.6156,3.6161,3.6394,3.6396,3.6397,3.6495,3.6497,3.6498,3.6452,3.6449,3.6446,3.6443,3.6542,3.6548,3.6554,0,0,0,0,0,0,0,0,0,0,0,0,0,3.6258,3.6162,3.6394,3.6386,3.6386,3.6495,3.6497,3.6498,3.6453,3.6449,3.6446,3.6442,3.654,3.6547,3.6554,3.6675,0,0,3.6577,3.658,0,0,0,0,0,0,0,0,3.6253,3.6267,3.6386,3.6387,3.6387,3.6457,3.6449,3.6557,3.6454,3.6428,3.6445,3.644,3.6518,3.6527,3.6554,3.668,3.6684,3.6578,3.6582,3.6586,3.6588,0,0,0,0,0,0,0,3.6246,3.6262,3.6434,3.6388,3.6389,3.6375,3.6386,3.6469,3.6492,3.643,3.6427,3.6439,3.6517,3.6547,3.6556,3.6686,3.6578,3.6584,3.6589,3.6592,3.6912,3.6915,0,0,0,0,0,0,3.6239,3.6257,3.6431,3.6437,3.631,3.6383,3.6394,3.6439,3.6491,3.6496,3.6442,3.6437,3.6536,3.6547,3.6559,3.67,3.6585,3.6592,3.6597,3.6908,3.6912,3.6917,0,0,0,0,0,0,3.6234,3.6255,3.6427,3.6346,3.6367,3.6391,3.6441,3.6443,3.6472,3.6501,3.6504,3.6469,3.6533,3.6548,3.6646,3.6703,3.6596,3.6603,3.6903,3.6909,3.6915,3.6986,0,0,0,0,0,0,3.6228,3.6254,3.6302,3.6348,3.6372,3.6514,3.6444,3.6447,3.6485,3.6479,3.6526,3.6531,3.6531,3.6635,3.6653,3.6711,3.6608,3.6898,3.6906,3.6913,3.6979,3.6994,3.7007,0,0,0,0,0,3.6219,3.6318,3.6304,3.6325,3.6432,3.6518,3.6531,3.6531,3.649,3.6537,3.6555,3.6529,3.6695,3.6646,3.6666,3.6727,3.6894,3.6903,3.6912,3.6972,3.6991,3.7007,0,0,0,0,0,0,3.6276,3.6323,3.6309,3.6426,3.6468,3.651,3.6569,3.6552,3.6606,3.6597,3.6594,3.6605,3.6705,3.6726,3.6671,3.6844,3.6788,3.6801,3.6827,3.6844,3.6858,3.6849,3.6615,0,0,0,0,0,3.6303,3.637,3.6407,3.6506,3.6528,3.6545,3.6583,3.6579,3.6622,3.664,3.6665,3.6707,3.6767,3.6808,3.6866,3.6983,3.699,3.7034,3.7048,3.706,3.707,3.7129,3.7148,3.6947,3.6947,3.6946,0,0,3.6357,3.6391,3.6434,3.6518,3.6551,3.6618,3.6561,3.6635,3.6684,3.6651,3.6743,3.6764,3.681,3.6916,3.6965,3.6937,3.7128,3.7071,3.708,3.7085,3.7141,3.716,3.7177,3.6953,3.6952,3.6951,0,0,3.649,3.6525,3.6609,3.6643,3.6693,3.6703,3.6724,3.6768,3.678,3.6874,3.6849,3.6907,3.7013,3.7046,3.7076,3.722,3.7196,3.7239,3.7311,3.7369,3.7384,3.7398,3.7446,3.7463,3.725,3.725,3.725,0,3.655,3.6653,3.6654,3.673,3.6766,3.674,3.6824,3.6856,3.6922,3.6947,3.6915,3.7046,3.7076,3.7187,3.7222,3.7249,3.7269,3.7232,3.7383,3.7397,3.741,3.7454,3.7473,3.7255,3.7254,3.7254,3.7253,0,3.6723,3.6794,3.6856,3.6921,3.6964,3.7044,3.7054,3.7098,3.7091,3.7104,3.7198,3.7232,3.7295,3.7322,3.7316,3.7432,3.7413,3.7383,3.7325,3.7433,3.7475,3.7493,3.7261,3.726,3.7258,3.7257,0,0,3.6892,3.6957,3.6979,3.7007,3.706,3.7114,3.7191,3.7253,3.7289,3.7336,3.7397,3.7487,3.7459,3.7493,3.7491,3.7542,3.7648,3.7504,3.7505,3.7526,3.7774,3.7793,3.7813,3.7634,3.7638,3.764,3.7768,0,3.7026,3.7162,3.7165,3.7288,3.7352,3.7328,3.7394,3.7433,3.7447,3.7501,3.7516,3.7578,3.7538,3.7558,3.7608,3.7625,3.7697,3.7616,3.7688,3.7691,3.7673,3.7836,3.7858,3.7977,3.7785,3.7788,3.779,0,3.7199,3.7251,3.7382,3.7423,3.745,3.751,3.7565,3.7619,3.7661,3.7667,3.7706,3.7695,3.777,3.7713,3.7814,3.7759,3.7789,3.7801,3.7806,3.7809,3.7744,3.784,3.8015,3.8031,3.7817,3.7815,3.7813,0,3.7304,3.7408,3.7498,3.7523,3.7575,3.7617,3.764,3.7679,3.7715,3.7764,3.7786,3.7843,3.7873,3.7916,3.792,3.7878,3.8021,3.7965,3.8025,3.8024,3.8053,3.805,3.8231,3.8079,3.8079,3.8078,3.8078,0,3.7451,3.753,3.7545,3.7601,3.7688,3.769,3.7775,3.7795,3.7829,3.7885,3.7869,3.7922,3.7925,3.7979,3.7982,3.8063,3.8078,3.8083,3.8082,3.8082,3.8081,3.8098,3.8089,3.8083,3.8082,3.8081,3.808,0,3.7581,3.7596,3.7692,3.7733,3.7745,3.7807,3.7841,3.7892,3.7905,3.7976,3.7993,3.8012,3.8074,3.8083,3.8155,3.8157,3.8253,3.8246,3.8239,3.8237,3.8295,3.8287,3.849,3.8515,3.8351,3.8352,3.8354,0,3.7672,3.7732,3.778,3.7817,3.7843,3.7903,3.794,3.7944,3.7983,3.8034,3.8078,3.8139,3.8187,3.8287,3.8305,3.836,3.8351,3.8418,3.8359,3.8356,3.8347,3.8341,3.8345,3.8428,3.843,3.8432,3.8433,0,3.7829,3.7832,3.7888,3.7945,3.799,3.8035,3.8077,3.8108,3.8116,3.8161,3.8224,3.8262,3.8336,3.8394,3.8448,3.8469,3.8451,3.8452,3.8468,3.8467,3.8458,3.8459,3.8266,3.8446,3.8445,3.8444,3.8443,3.8443,3.7939,3.799,3.8031,3.8092,3.8125,3.8164,3.8213,3.8232,3.8286,3.8347,3.8346,3.8415,3.8452,3.8523,3.8548,3.86,3.8577,3.8602,3.8607,3.8612,3.8615,3.8454,3.861,3.861,3.861,3.8609,3.8609,0,3.8091,3.8117,3.8173,3.8233,3.828,3.8262,3.8307,3.8347,3.8408,3.8446,3.8494,3.8565,3.8622,3.8646,3.87,3.8737,3.873,3.8751,3.8746,3.875,3.8635,3.8613,3.8756,3.8756,3.8756,3.8755,3.8755,3.8755,3.8176,3.8261,3.8269,3.8369,3.8393,3.8461,3.8488,3.8523,3.8553,3.8634,3.8681,3.8697,3.8728,3.8784,3.8835,3.884,3.8859,3.8882,3.8883,3.8774,3.8759,3.8745,3.8724,3.8888,3.8888,3.8994,3.8995,3.8996]},{"header":{"parameterUnit":"m.s-1","parameterCategory":1,"la1":30.2991,"la2":30.254,"lo1":-89.0895,"lo2":-89.0444,"dy":0.0017,"dx":0.0017,"nx":28,"ny":28,"refTime":"2025-04-13T03:00:00:Z","depth":0,"parameterNumber":3,"parameterNumberName":"V-component_of_WINDS"},"data":[0,0,0,0,0,0,0,0,0,0,0,0,0,0,0,0,0,0,0,0,0,0,0,0,0,0,0,0,0,0,0,0,0,0,0,0,0,0,0,0,0,0,0,0,0,0,0,0,0,0,0,0,0,0,0,0,0,0,3.9276,3.9277,0,3.9348,3.9349,3.935,3.9313,3.9311,3.9309,3.9308,3.9379,3.9383,3.9386,0,0,0,0,0,0,0,0,0,0,0,0,0,3.9101,3.9105,3.9276,3.9277,3.9277,3.9348,3.9349,3.935,3.9314,3.9311,3.9309,3.9307,3.9378,3.9382,3.9387,0,0,0,0,0,0,0,0,0,0,0,0,0,3.9176,3.9106,3.9275,3.9268,3.9268,3.9348,3.9349,3.935,3.9314,3.9311,3.9308,3.9306,3.9377,3.9382,3.9387,3.9478,0,0,3.9404,3.9407,0,0,0,0,0,0,0,0,3.9171,3.9182,3.9268,3.9269,3.9269,3.9319,3.9314,3.9393,3.9315,3.9296,3.9308,3.9304,3.9361,3.9368,3.9388,3.9481,3.9485,3.9405,3.9408,3.941,3.9412,0,0,0,0,0,0,0,3.9166,3.9179,3.9304,3.9269,3.927,3.9259,3.9267,3.9328,3.9344,3.9298,3.9295,3.9305,3.9361,3.9382,3.9389,3.9486,3.9405,3.9409,3.9413,3.9415,3.9653,3.9656,0,0,0,0,0,0,3.9162,3.9175,3.9302,3.9306,3.9212,3.9265,3.9273,3.9306,3.9343,3.9346,3.9307,3.9303,3.9374,3.9383,3.9391,3.9497,3.941,3.9416,3.9419,3.965,3.9654,3.9657,0,0,0,0,0,0,3.9158,3.9174,3.9299,3.924,3.9255,3.9271,3.9307,3.9308,3.933,3.935,3.9352,3.9326,3.9372,3.9384,3.9456,3.95,3.9418,3.9423,3.9647,3.9651,3.9655,3.9712,0,0,0,0,0,0,3.9154,3.9173,3.9209,3.9241,3.9258,3.9364,3.931,3.9312,3.934,3.9335,3.9369,3.9372,3.9371,3.9448,3.9462,3.9506,3.9427,3.9643,3.9649,3.9654,3.9706,3.9718,3.9728,0,0,0,0,0,3.9148,3.9222,3.9211,3.9226,3.9304,3.9367,3.9377,3.9375,3.9344,3.9379,3.9391,3.9371,3.9493,3.9456,3.9471,3.9517,3.964,3.9647,3.9654,3.9702,3.9716,3.9728,0,0,0,0,0,0,3.9195,3.9226,3.9214,3.9302,3.9332,3.9361,3.9405,3.9391,3.943,3.9424,3.9419,3.9427,3.9502,3.9517,3.9475,3.9605,3.9561,3.9571,3.9593,3.9606,3.9617,3.9611,3.9432,0,0,0,0,0,3.9216,3.9265,3.929,3.9364,3.938,3.939,3.9418,3.9414,3.9444,3.9457,3.9474,3.9504,3.9548,3.9578,3.9621,3.9708,3.9713,3.9747,3.9758,3.9767,3.9775,3.9819,3.9834,3.9679,3.9679,3.9679,0,0,3.9259,3.9282,3.9314,3.9374,3.9397,3.9447,3.9401,3.9457,3.9493,3.9465,3.9534,3.9548,3.958,3.966,3.9696,3.9674,3.9819,3.9775,3.9782,3.9786,3.9828,3.9842,3.9855,3.9684,3.9683,3.9682,0,0,3.9363,3.9387,3.945,3.9473,3.9508,3.9514,3.9529,3.9559,3.9567,3.9636,3.9615,3.9657,3.9735,3.9758,3.978,3.9889,3.987,3.9903,3.9959,4.0002,4.0014,4.0025,4.0061,4.0075,3.9911,3.9911,3.9911,0,3.9412,3.9487,3.9484,3.954,3.9566,3.9543,3.9605,3.9628,3.9675,3.9692,3.9668,3.9763,3.9783,3.9866,3.9892,3.9912,3.9927,3.9899,4.0013,4.0023,4.0033,4.0068,4.0082,3.9915,3.9915,3.9914,3.9914,0,3.9545,3.9597,3.9643,3.9689,3.972,3.9779,3.9783,3.9814,3.9807,3.9814,3.9883,3.9906,3.9951,3.9971,3.9965,4.0052,4.0037,4.0013,3.9969,4.0052,4.0084,4.0097,3.992,3.9919,3.9918,3.9917,0,0,3.9683,3.9723,3.974,3.9759,3.9794,3.9833,3.989,3.9934,3.996,3.9992,4.0038,4.0103,4.0079,4.0104,4.0099,4.0137,4.0218,4.0108,4.0108,4.0126,4.0313,4.033,4.0346,4.0206,4.0209,4.0211,4.031,0,3.9787,3.9887,3.9884,3.9977,4.0023,3.9999,4.0048,4.0074,4.0081,4.012,4.0128,4.0173,4.014,4.0155,4.0191,4.0201,4.0256,4.0194,4.0247,4.0249,4.0239,4.0363,4.0383,4.0475,4.0323,4.0325,4.0326,0,3.9924,3.996,4.0056,4.0081,4.01,4.0145,4.0183,4.0221,4.0249,4.0251,4.0277,4.0266,4.032,4.0275,4.0349,4.0307,4.0328,4.0335,4.0339,4.0343,4.0292,4.037,4.0505,4.0518,4.0347,4.0345,4.0344,0,4.0012,4.0084,4.0151,4.0168,4.0199,4.023,4.0244,4.0269,4.0294,4.0327,4.0343,4.0383,4.0404,4.0433,4.0431,4.0399,4.0505,4.046,4.0507,4.0507,4.0531,4.0529,4.067,4.0546,4.0546,4.0546,4.0546,0,4.0129,4.0189,4.019,4.0231,4.0296,4.0291,4.0355,4.0365,4.0387,4.0428,4.041,4.0448,4.0444,4.0482,4.0481,4.054,4.0551,4.0553,4.0551,4.0554,4.0553,4.0567,4.056,4.055,4.0549,4.0548,4.0547,0,4.0239,4.0243,4.0313,4.0336,4.0343,4.039,4.0408,4.0446,4.0451,4.0502,4.0514,4.0522,4.0565,4.0566,4.0616,4.0615,4.0687,4.068,4.0678,4.0676,4.0723,4.0718,4.0876,4.0896,4.0761,4.0762,4.0763,0,4.0313,4.0358,4.0385,4.0411,4.0427,4.047,4.0495,4.049,4.0517,4.055,4.0582,4.0624,4.0657,4.0727,4.0736,4.0774,4.0766,4.0818,4.0771,4.0771,4.0764,4.0761,4.0764,4.0828,4.0829,4.083,4.0831,0,4.0443,4.0442,4.048,4.0517,4.0548,4.0577,4.0605,4.0627,4.0625,4.0655,4.0699,4.0725,4.0775,4.0816,4.0851,4.0864,4.0847,4.0846,4.0858,4.0861,4.0858,4.0858,4.0702,4.0843,4.0841,4.0841,4.084,4.084,4.0536,4.0573,4.0598,4.0639,4.0659,4.0684,4.0719,4.0728,4.0764,4.0805,4.0799,4.0848,4.087,4.0916,4.0932,4.0968,4.0949,4.0968,4.0973,4.0977,4.0981,4.0852,4.0975,4.0974,4.0974,4.0974,4.0974,0,4.0663,4.0677,4.0715,4.0753,4.0785,4.0766,4.0794,4.0822,4.0865,4.0887,4.0919,4.0968,4.1007,4.1018,4.1055,4.1081,4.1074,4.1091,4.1088,4.1091,4.0997,4.0981,4.1096,4.1096,4.1096,4.1096,4.1096,4.1096,4.0733,4.0795,4.0796,4.0866,4.0879,4.0926,4.0943,4.0965,4.0983,4.1038,4.107,4.1077,4.1094,4.1131,4.1165,4.1167,4.118,4.12,4.1199,4.111,4.1098,4.1086,4.1072,4.1203,4.1204,4.129,4.1291,4.1291]}]]